Regional Weather Roundup
Issued by NWS Sterling, VA

Home | Current Version | Previous Version | Graphics & Text | Print | Product List | Glossary On
Versions: 1 2 3 4 5 6 7 8 9 10 11 12 13 14 15 16 17 18 19 20 21 22 23 24 25 26 27 28 29 30 31 32 33 34 35 36 37 38 39 40 41 42 43 44 45 46 47 48 49 50
610
ASUS41 KLWX 052110
RWRLWX

REGIONAL WEATHER ROUNDUP
NATIONAL WEATHER SERVICE BALTIMORE MD/WASHINGTON DC
500 PM EDT THU MAY 05 2016

Note: "FAIR" indicates few or no clouds below 12,000 feet
with no significant weather and/or obstructions to visibility.
 TC=TEMPERATURE CELSIUS

 * =Non NWS site. Station does not report precipitation (e.g. rain,
    snow, etc.), thunder, or fog.

DCZ001-MDZ009-015-VAZ040>042-051-053>054-052200-
WASHINGTON METRO

CITY           SKY/WX    TMP DP  RH WIND       PRES   REMARKS
WASHINGTON NAT CLOUDY    57  47  69 NE14      29.63F
DULLES         PTSUNNY   56  47  71 N14       29.64S
ANDREWS AFB    CLOUDY    55  47  74 NE13      29.62S
FT BELVOIR     PTSUNNY   58  47  67 VRB3      29.63S
QUANTICO       CLOUDY    57  48  72 NE10      29.63F
COLLEGE PARK*  CLOUDY    54  45  71 N6        29.63S
LEESBURG*      CLOUDY    57  52  82 N8        29.65S
MANASSAS*      CLOUDY    57  48  72 N10       29.63F
GAITHERSBURG*  CLOUDY    55  46  71 N5        29.67S

$$

MDZ006>007-011-014-052200-
BALTIMORE METRO

CITY           SKY/WX    TMP DP  RH WIND       PRES   REMARKS
BWI AIRPORT    CLOUDY    54  45  71 N9        29.63S
MD SCIENCE CTR   N/A     56  46  69 MISG      29.64S
MARTIN STATE   CLOUDY    57  50  77 N3        29.65S
ANNAPOLIS      CLOUDY    55  48  77 N7        29.63S
FORT MEADE*    CLOUDY    52  46  82 N3        29.66S

$$

MDZ012-015-019>023-052200-
MARYLAND EASTERN SHORE

CITY           SKY/WX    TMP DP  RH WIND       PRES   REMARKS
OCEAN CITY     CLOUDY    51  46  83 NE17G25   29.60S
SALISBURY      CLOUDY    52  48  86 NE12      29.60S
CAMBRIDGE*     CLOUDY    52  46  82 N9        29.61S
EASTON*        PTSUNNY  N/A N/A N/A NE10      29.65F

$$

MDZ017>025-052200-
SOUTHERN MARYLAND

CITY           SKY/WX    TMP DP  RH WIND       PRES   REMARKS
PATUXENT RIVER CLOUDY    54  47  77 N13       29.61S
ST INIGOES     CLOUDY    54  47  77 NE7       29.60S
LEONARDTOWN*   CLOUDY    52  45  76 N5        29.62F

$$

MDZ003>005-052200-
NORTH CENTRAL MARYLAND

CITY           SKY/WX    TMP DP  RH WIND       PRES   REMARKS
FREDERICK*     PTSUNNY   55  50  82 N5        29.67F
HAGERSTOWN APT CLOUDY    58  46  64 N10       29.64F
WESTMINSTER*   CLOUDY    54  48  82 N7        29.65S

$$

MDZ501>502-052200-
WESTERN MARYLAND

CITY           SKY/WX    TMP DP  RH WIND       PRES   REMARKS
OAKLAND*       CLOUDY    48  45  87 N5        29.65S
CUMBERLAND*    CLOUDY    63  45  51 NE5       29.67F

$$

VAZ025>031-052200-
SHENANDOAH VALLEY

CITY           SKY/WX    TMP DP  RH WIND       PRES   REMARKS
WINCHESTER*    CLOUDY    55  48  76 NE3       29.64F
FRONT ROYAL*   CLOUDY    54  50  87 CALM      29.64F
LURAY*         CLOUDY    54  52  94 N9        29.64F
NEW MARKET*    CLOUDY    52  49  89 N5        29.65S
STAUNTON*      CLOUDY    53  51  95 N8        29.66S
WAYNESBORO*    CLOUDY    49  48  95 N12G17    29.64S

$$

WVZ021-048>050-054>055-052200-
EASTERN WEST VIRGINIA PANHANDLE

CITY           SKY/WX    TMP DP  RH WIND       PRES   REMARKS
MARTINSBURG    CLOUDY    56  47  71 N8        29.64S
PETERSBURG*    CLOUDY    57  49  76 SE6       29.65F

$$

VAZ036>039-050-052200-
CENTRAL FOOTHILLS

CITY           SKY/WX    TMP DP  RH WIND       PRES   REMARKS
CHARLOTTESVILL CLOUDY    54  48  80 N6        29.63S
CULPEPER*      CLOUDY    56  50  80 N10       29.64F
ORANGE*        DRIZZLE   54  52  94 NE7       29.64F
GORDONSVILLE*  CLOUDY    54  50  86 NE8G16    29.62S
WARRENTON*     CLOUDY    58  46  65 N8        29.62F

$$

VAZ055>057-052200-
NORTH AND CENTRAL PIEDMONT

CITY           SKY/WX    TMP DP  RH WIND       PRES   REMARKS
FREDERICKSBRG* CLOUDY    55  52  88 N10       29.62S
STAFFORD*      CLOUDY    55  48  75 N8        29.66F

$$

NCZ024-NYZ072-PAZ021-071-VAZ022-071-052200-
OTHER REGIONAL OBSERVATIONS

CITY           SKY/WX    TMP DP  RH WIND       PRES   REMARKS
NEW YORK CITY  CLOUDY    56  42  59 NE12G17   29.66S
PHILADELPHIA   CLOUDY    57  44  62 NE10      29.63F
PITTSBURGH     LGT RAIN  60  45  57 N20G25    29.69R
ROANOKE        LGT RAIN  50  43  77 W8        29.67S
RICHMOND       RAIN      51  49  92 N13       29.60S FOG
RALEIGH        PTSUNNY   55  51  86 N9G22     29.59S

$$

ANZ530>537-052200-
MARINE OBSERVATIONS

STATION/POSITION TIME  TEMP    WIND        PRES
                       AIR SEA DIR/SP/G
                 (UTC) (F)     (DEG/KT/KT) (MB)
THOMAS PT LIGHT  2100   54 58  360/ 12/ 14 1004.5R
BALT KEY BRIDGE  2000   54     360/ 11/ 14 1003.2F
COVE POINT       2006   53      30/ 13/ 18 1003.1F
LEWISETTA        2000   54 61   40/  8/ 13 1002.1F
SOLOMONS ISLAND  2000   53 60   20/  9/ 13   N/A
PINEY POINT      2000           30/ 10/ 12   N/A

$$





USA.gov is the U.S. government's official web portal to all federal, state and local government web resources and services.